CERISE

导读

CERISE(西雷斯)是法国于1995年7月7日发射的微型试验军事侦察卫星,是法国推进自主防务侦察体系建设的早期成果。它验证了相关空间侦察技术,为法国后续“太阳神”系列侦察卫星的发展积累了关键经验。该卫星的发射推动法国在军事航天领域迈出重要一步,助力法国逐步摆脱对其他国家太空情报的依赖,提升了法国独立防务能力。

基本信息
目录编号:
23606
目录名称:
CERISE
国际标识:
1995-033B
轨道中心:
EARTH
卫星名称:
CERISE
卫星全名:
--
卫星状态:
在轨 (已飞行11382 天)
发射日期:
1995-07-07 UTC
国别 :
法国 (FR)
星等 :
--
轨道信息
数据来源 国际轨道数据
星历时间: 2026-09-04T03:39:37+0800
9小时前
查看轨道信息
半长轴: 6832.228km
偏心率: 0.0004502
轨道倾角: 98.301°
近地点辐角 333.392°
升交点赤经 113.858°
平近点角 26.709°
近地点: 451.015km
远地点: 457.167km
周期: 93.671分钟
每日圈数: 15.373024
详细信息
使用方式:
暂无
2D轨道图
3D轨道图
轨道高度分析图
轨道倾角分析图
轨道综合分析图
查看轨道综合分析图
交会数据列表
事件ID 空间交会对象 最接近时刻(TCA) 交会距离 交会风险概率(CRP) 交会风险指数(CRI) 操作
CDM_260904-054802-360605-479922
CERISE (23606)
2026-09-04T
05:48:29+0000
0.856 km
远距离
4.581834E-5 中风险 0.68
CDM_260903-043702-360605-370927
CERISE (23606)
2026-09-03T
04:37:49+0000
1.413 km
极远距离
5.536645E-6 低风险 0.5
CDM_260906-191402-360606-046921
CERISE (23606)
2026-09-06T
19:14:00+0000
1.772 km
极远距离
3.935856E-6 低风险 0.47
CDM_260906-093902-360606-442921
CERISE (23606)
2026-09-06T
09:39:51+0000
1.897 km
极远距离
3.211924E-6 低风险 0.45
CDM_260906-120502-360606-383521
CERISE (23606)
HERMES-3 (63835)
2026-09-06T
12:05:50+0000
1.495 km
极远距离
2.709565E-6 低风险 0.44
CDM_260903-063102-360605-198429
CERISE (23606)
2026-09-03T
06:31:22+0000
2.226 km
极远距离
2.192425E-6 低风险 0.42
CDM_260904-150002-360606-590321
CERISE (23606)
2026-09-04T
15:00:05+0000
2.243 km
极远距离
2.127442E-6 低风险 0.42
CDM_260905-112102-360605-187421
CERISE (23606)
2026-09-05T
11:21:26+0000
2.824 km
极远距离
1.435059E-6 低风险 0.38